Time,TemperatureF,DewpointF,PressureIn,WindDirection,WindDirectionDegrees,WindSpeedMPH,WindSpeedGustMPH,Humidity,HourlyPrecipIn,Conditions,Clouds,dailyrainin,SoftwareType,DateUTC
2013-01-19 00:03:00,38.0,25.0,30.07,WSW,238,4.0,-999.0,58,-99.99,,,-99.99,,2013-01-19 05:03:00,
2013-01-19 00:12:00,38.0,25.0,30.07,WSW,238,4.0,-999.0,58,-99.99,,,-99.99,,2013-01-19 05:12:00,
2013-01-19 00:23:00,38.0,24.0,30.06,SW,225,3.0,-999.0,57,-99.99,,,-99.99,,2013-01-19 05:23:00,
2013-01-19 00:33:00,39.0,25.0,30.06,South,184,4.0,-999.0,57,-99.99,,,-99.99,,2013-01-19 05:33:00,
2013-01-19 00:43:00,39.0,25.0,30.06,South,184,4.0,-999.0,57,-99.99,,,-99.99,,2013-01-19 05:43:00,
2013-01-19 00:53:00,39.0,25.0,30.07,SW,221,4.0,-999.0,57,-99.99,,,-99.99,,2013-01-19 05:53:00,
2013-01-19 01:03:00,39.0,25.0,30.07,South,186,3.0,-999.0,58,-99.99,,,-99.99,,2013-01-19 06:03:00,
2013-01-19 01:12:00,39.0,25.0,30.07,South,186,3.0,-999.0,58,-99.99,,,-99.99,,2013-01-19 06:12:00,
2013-01-19 01:23:00,38.0,25.0,30.07,South,183,3.0,-999.0,59,-99.99,,,-99.99,,2013-01-19 06:23:00,
2013-01-19 01:33:00,38.0,25.0,30.07,South,190,2.0,-999.0,60,-99.99,,,-99.99,,2013-01-19 06:33:00,
2013-01-19 01:43:00,38.0,25.0,30.07,South,190,2.0,-999.0,60,-99.99,,,-99.99,,2013-01-19 06:43:00,
2013-01-19 01:53:00,38.0,25.0,30.07,South,174,3.0,-999.0,60,-99.99,,,-99.99,,2013-01-19 06:53:00,
2013-01-19 02:02:00,39.0,26.0,30.07,South,183,2.0,-999.0,60,-99.99,,,-99.99,,2013-01-19 07:02:00,
2013-01-19 02:12:00,39.0,26.0,30.07,South,183,2.0,-999.0,60,-99.99,,,-99.99,,2013-01-19 07:12:00,
2013-01-19 02:22:00,39.0,26.0,30.07,South,183,2.0,-999.0,60,-99.99,,,-99.99,,2013-01-19 07:22:00,
2013-01-19 02:33:00,38.0,25.0,30.07,SW,231,2.0,-999.0,60,-99.99,,,-99.99,,2013-01-19 07:33:00,
2013-01-19 02:43:00,38.0,25.0,30.07,SW,231,2.0,-999.0,60,-99.99,,,-99.99,,2013-01-19 07:43:00,
2013-01-19 02:53:00,38.0,26.0,30.06,SW,215,2.0,-999.0,61,-99.99,,,-99.99,,2013-01-19 07:53:00,
2013-01-19 03:02:00,38.0,26.0,30.07,SSW,198,2.0,-999.0,61,-99.99,,,-99.99,,2013-01-19 08:02:00,
2013-01-19 03:12:00,38.0,26.0,30.07,SSW,198,2.0,-999.0,61,-99.99,,,-99.99,,2013-01-19 08:12:00,
2013-01-19 03:22:00,38.0,26.0,30.06,SSW,207,2.0,-999.0,61,-99.99,,,-99.99,,2013-01-19 08:22:00,
2013-01-19 03:32:00,38.0,26.0,30.07,SSE,160,1.0,-999.0,62,-99.99,,,-99.99,,2013-01-19 08:32:00,
2013-01-19 03:43:00,38.0,26.0,30.07,SSE,160,1.0,-999.0,62,-99.99,,,-99.99,,2013-01-19 08:43:00,
2013-01-19 03:53:00,38.0,26.0,30.06,South,189,2.0,-999.0,61,-99.99,,,-99.99,,2013-01-19 08:53:00,
2013-01-19 04:02:00,38.0,26.0,30.06,South,173,1.0,-999.0,62,-99.99,,,-99.99,,2013-01-19 09:02:00,
2013-01-19 04:12:00,38.0,26.0,30.06,South,173,1.0,-999.0,62,-99.99,,,-99.99,,2013-01-19 09:12:00,
2013-01-19 04:23:00,38.0,26.0,30.06,South,173,1.0,-999.0,62,-99.99,,,-99.99,,2013-01-19 09:23:00,
2013-01-19 04:33:00,38.0,26.0,30.04,South,180,1.0,-999.0,62,-99.99,,,-99.99,,2013-01-19 09:33:00,
2013-01-19 04:42:00,38.0,26.0,30.04,South,180,1.0,-999.0,62,-99.99,,,-99.99,,2013-01-19 09:42:00,
2013-01-19 04:53:00,37.0,25.0,30.04,South,170,1.0,-999.0,62,-99.99,,,-99.99,,2013-01-19 09:53:00,
2013-01-19 05:02:00,37.0,26.0,30.03,SSE,167,1.0,-999.0,63,-99.99,,,-99.99,,2013-01-19 10:02:00,
2013-01-19 05:12:00,37.0,26.0,30.03,SSE,167,1.0,-999.0,63,-99.99,,,-99.99,,2013-01-19 10:12:00,
2013-01-19 05:23:00,37.0,26.0,30.04,East,97,0.0,-999.0,63,-99.99,,,-99.99,,2013-01-19 10:23:00,
2013-01-19 05:32:00,36.0,25.0,30.04,SSE,160,0.0,-999.0,64,-99.99,,,-99.99,,2013-01-19 10:32:00,
2013-01-19 05:43:00,36.0,25.0,30.04,SSE,160,0.0,-999.0,64,-99.99,,,-99.99,,2013-01-19 10:43:00,
2013-01-19 05:53:00,36.0,25.0,30.04,South,171,0.0,-999.0,64,-99.99,,,-99.99,,2013-01-19 10:53:00,
2013-01-19 06:03:00,37.0,26.0,30.04,South,171,0.0,-999.0,64,-99.99,,,-99.99,,2013-01-19 11:03:00,
2013-01-19 06:12:00,37.0,26.0,30.04,South,171,0.0,-999.0,64,-99.99,,,-99.99,,2013-01-19 11:12:00,
2013-01-19 07:48:00,41.0,27.0,30.03,South,191,2.0,-999.0,56,-99.99,,,-99.99,,2013-01-19 12:48:00,
2013-01-19 07:53:00,41.0,27.0,30.03,South,185,1.0,-999.0,57,-99.99,,,-99.99,,2013-01-19 12:53:00,
2013-01-19 08:03:00,41.0,27.0,30.03,SSW,202,2.0,-999.0,57,-99.99,,,-99.99,,2013-01-19 13:03:00,
2013-01-19 08:13:00,41.0,27.0,30.03,SSW,202,2.0,-999.0,57,-99.99,,,-99.99,,2013-01-19 13:13:00,
2013-01-19 08:22:00,41.0,27.0,30.04,South,188,2.0,-999.0,57,-99.99,,,-99.99,,2013-01-19 13:22:00,
2013-01-19 08:33:00,41.0,27.0,30.03,SW,230,2.0,-999.0,58,-99.99,,,-99.99,,2013-01-19 13:33:00,
2013-01-19 08:43:00,41.0,27.0,30.03,SW,230,2.0,-999.0,58,-99.99,,,-99.99,,2013-01-19 13:43:00,
2013-01-19 08:54:00,41.0,27.0,30.03,WSW,244,1.0,-999.0,58,-99.99,,,-99.99,,2013-01-19 13:54:00,
2013-01-19 09:03:00,41.0,27.0,30.04,South,179,2.0,-999.0,58,-99.99,,,-99.99,,2013-01-19 14:03:00,
2013-01-19 09:12:00,41.0,27.0,30.04,South,179,2.0,-999.0,58,-99.99,,,-99.99,,2013-01-19 14:12:00,
2013-01-19 09:23:00,42.0,28.0,30.03,West,265,2.0,-999.0,58,-99.99,,,-99.99,,2013-01-19 14:23:00,
2013-01-19 09:34:00,42.0,28.0,30.04,SSW,194,2.0,-999.0,58,-99.99,,,-99.99,,2013-01-19 14:34:00,
2013-01-19 09:43:00,42.0,28.0,30.04,SSW,194,2.0,-999.0,58,-99.99,,,-99.99,,2013-01-19 14:43:00,
2013-01-19 09:53:00,43.0,29.0,30.04,South,182,2.0,-999.0,58,-99.99,,,-99.99,,2013-01-19 14:53:00,
2013-01-19 10:03:00,44.0,30.0,30.04,SSW,207,2.0,-999.0,57,-99.99,,,-99.99,,2013-01-19 15:03:00,
2013-01-19 10:13:00,44.0,30.0,30.04,SSW,207,2.0,-999.0,57,-99.99,,,-99.99,,2013-01-19 15:13:00,
2013-01-19 10:23:00,45.0,30.0,30.03,SSW,209,3.0,-999.0,56,-99.99,,,-99.99,,2013-01-19 15:23:00,
2013-01-19 10:33:00,45.0,31.0,30.03,South,170,3.0,-999.0,57,-99.99,,,-99.99,,2013-01-19 15:33:00,
2013-01-19 10:43:00,45.0,31.0,30.03,South,170,3.0,-999.0,57,-99.99,,,-99.99,,2013-01-19 15:43:00,
2013-01-19 10:53:00,45.0,31.0,30.04,WSW,242,2.0,-999.0,57,-99.99,,,-99.99,,2013-01-19 15:53:00,
2013-01-19 11:03:00,45.0,31.0,30.03,West,275,3.0,-999.0,57,-99.99,,,-99.99,,2013-01-19 16:03:00,
2013-01-19 11:13:00,45.0,31.0,30.03,West,275,3.0,-999.0,57,-99.99,,,-99.99,,2013-01-19 16:13:00,
2013-01-19 11:23:00,46.0,31.0,30.02,West,275,2.0,-999.0,56,-99.99,,,-99.99,,2013-01-19 16:23:00,
2013-01-19 11:33:00,47.0,32.0,30.02,SW,236,2.0,-999.0,56,-99.99,,,-99.99,,2013-01-19 16:33:00,
2013-01-19 11:43:00,47.0,32.0,30.02,SW,236,2.0,-999.0,56,-99.99,,,-99.99,,2013-01-19 16:43:00,
2013-01-19 11:54:00,47.0,32.0,30.01,West,270,2.0,-999.0,55,-99.99,,,-99.99,,2013-01-19 16:54:00,
2013-01-19 12:03:00,48.0,32.0,29.99,SSE,151,3.0,-999.0,54,-99.99,,,-99.99,,2013-01-19 17:03:00,
2013-01-19 12:21:00,48.0,32.0,29.99,SSE,151,3.0,-999.0,54,-99.99,,,-99.99,,2013-01-19 17:21:00,
2013-01-19 12:29:00,48.0,32.0,29.98,SW,218,3.0,-999.0,54,-99.99,,,-99.99,,2013-01-19 17:29:00,
2013-01-19 12:35:00,49.0,34.0,29.97,SSW,201,3.0,-999.0,55,-99.99,,,-99.99,,2013-01-19 17:35:00,
2013-01-19 12:48:00,49.0,34.0,29.97,SSW,201,3.0,-999.0,55,-99.99,,,-99.99,,2013-01-19 17:48:00,
2013-01-19 12:55:00,50.0,34.0,29.95,WSW,244,3.0,-999.0,53,-99.99,,,-99.99,,2013-01-19 17:55:00,
2013-01-19 13:14:00,50.0,34.0,29.94,WSW,245,4.0,-999.0,53,-99.99,,,-99.99,,2013-01-19 18:14:00,
2013-01-19 13:28:00,50.0,34.0,29.93,West,268,4.0,-999.0,53,-99.99,,,-99.99,,2013-01-19 18:28:00,
2013-01-19 13:35:00,50.0,34.0,29.92,SW,218,3.0,-999.0,53,-99.99,,,-99.99,,2013-01-19 18:35:00,
2013-01-19 13:45:00,50.0,34.0,29.92,SW,218,3.0,-999.0,53,-99.99,,,-99.99,,2013-01-19 18:45:00,
2013-01-19 14:09:00,51.0,34.0,29.90,SE,140,4.0,-999.0,53,-99.99,,,-99.99,,2013-01-19 19:09:00,
2013-01-19 14:20:00,51.0,34.0,29.90,SE,140,4.0,-999.0,53,-99.99,,,-99.99,,2013-01-19 19:20:00,
2013-01-19 14:30:00,52.0,35.0,29.89,WSW,241,3.0,-999.0,53,-99.99,,,-99.99,,2013-01-19 19:30:00,
2013-01-19 14:39:00,52.0,35.0,29.88,SSE,164,3.0,-999.0,53,-99.99,,,-99.99,,2013-01-19 19:39:00,
2013-01-19 14:47:00,52.0,35.0,29.88,SSE,164,3.0,-999.0,53,-99.99,,,-99.99,,2013-01-19 19:47:00,
2013-01-19 14:59:00,52.0,35.0,29.88,SSW,202,3.0,-999.0,52,-99.99,,,-99.99,,2013-01-19 19:59:00,
2013-01-19 15:26:00,52.0,34.0,29.86,SW,221,4.0,-999.0,51,-99.99,,,-99.99,,2013-01-19 20:26:00,
2013-01-19 15:38:00,52.0,34.0,29.85,SSW,204,3.0,-999.0,51,-99.99,,,-99.99,,2013-01-19 20:38:00,
2013-01-19 15:50:00,52.0,34.0,29.85,SSW,204,3.0,-999.0,51,-99.99,,,-99.99,,2013-01-19 20:50:00,
2013-01-19 15:59:00,52.0,35.0,29.84,SSW,199,4.0,-999.0,52,-99.99,,,-99.99,,2013-01-19 20:59:00,
2013-01-19 16:07:00,52.0,35.0,29.83,SSW,194,4.0,-999.0,52,-99.99,,,-99.99,,2013-01-19 21:07:00,
2013-01-19 16:15:00,52.0,35.0,29.83,SSW,194,4.0,-999.0,52,-99.99,,,-99.99,,2013-01-19 21:15:00,
2013-01-19 16:45:00,51.0,34.0,29.81,South,182,3.0,-999.0,52,-99.99,,,-99.99,,2013-01-19 21:45:00,
2013-01-19 17:01:00,51.0,34.0,29.80,SSW,204,4.0,-999.0,53,-99.99,,,-99.99,,2013-01-19 22:01:00,
2013-01-19 17:15:00,51.0,34.0,29.80,South,190,3.0,-999.0,52,-99.99,,,-99.99,,2013-01-19 22:15:00,
2013-01-19 17:28:00,51.0,34.0,29.79,SSE,162,2.0,-999.0,53,-99.99,,,-99.99,,2013-01-19 22:28:00,
2013-01-19 17:35:00,51.0,34.0,29.80,SSW,205,2.0,-999.0,52,-99.99,,,-99.99,,2013-01-19 22:35:00,
2013-01-19 17:48:00,51.0,34.0,29.80,SSW,205,2.0,-999.0,52,-99.99,,,-99.99,,2013-01-19 22:48:00,
2013-01-19 17:58:00,50.0,33.0,29.79,South,179,2.0,-999.0,52,-99.99,,,-99.99,,2013-01-19 22:58:00,
2013-01-19 18:13:00,50.0,33.0,29.79,WSW,240,2.0,-999.0,51,-99.99,,,-99.99,,2013-01-19 23:13:00,
2013-01-19 18:34:00,50.0,33.0,29.79,SSE,164,2.0,-999.0,51,-99.99,,,-99.99,,2013-01-19 23:34:00,
2013-01-19 18:46:00,50.0,33.0,29.79,SSE,164,2.0,-999.0,51,-99.99,,,-99.99,,2013-01-19 23:46:00,
2013-01-19 19:08:00,50.0,33.0,29.79,SSW,211,3.0,-999.0,51,-99.99,,,-99.99,,2013-01-20 00:08:00,
2013-01-19 19:15:00,50.0,33.0,29.79,SSW,205,2.0,-999.0,51,-99.99,,,-99.99,,2013-01-20 00:15:00,
2013-01-19 19:25:00,50.0,33.0,29.79,WSW,252,2.0,-999.0,51,-99.99,,,-99.99,,2013-01-20 00:25:00,
2013-01-19 19:35:00,50.0,33.0,29.79,SW,222,1.0,-999.0,51,-99.99,,,-99.99,,2013-01-20 00:35:00,
2013-01-19 19:46:00,50.0,33.0,29.79,SW,222,1.0,-999.0,51,-99.99,,,-99.99,,2013-01-20 00:46:00,
2013-01-19 19:58:00,50.0,33.0,29.79,WSW,241,2.0,-999.0,51,-99.99,,,-99.99,,2013-01-20 00:58:00,
2013-01-19 20:04:00,50.0,33.0,29.78,SSE,163,2.0,-999.0,51,-99.99,,,-99.99,,2013-01-20 01:04:00,
2013-01-19 20:21:00,50.0,33.0,29.78,SSE,163,2.0,-999.0,51,-99.99,,,-99.99,,2013-01-20 01:21:00,
2013-01-19 20:27:00,50.0,33.0,29.77,South,184,2.0,-999.0,51,-99.99,,,-99.99,,2013-01-20 01:27:00,
2013-01-19 20:37:00,50.0,33.0,29.77,WSW,249,3.0,-999.0,51,-99.99,,,-99.99,,2013-01-20 01:37:00,
2013-01-19 20:48:00,50.0,33.0,29.77,WSW,249,3.0,-999.0,51,-99.99,,,-99.99,,2013-01-20 01:48:00,
2013-01-19 21:04:00,50.0,33.0,29.76,SSW,209,2.0,-999.0,51,-99.99,,,-99.99,,2013-01-20 02:04:00,
2013-01-19 21:15:00,49.0,32.0,29.75,South,169,2.0,-999.0,52,-99.99,,,-99.99,,2013-01-20 02:15:00,
2013-01-19 21:27:00,49.0,33.0,29.75,South,191,3.0,-999.0,53,-99.99,,,-99.99,,2013-01-20 02:27:00,
2013-01-19 21:59:00,49.0,33.0,29.74,SW,215,3.0,-999.0,53,-99.99,,,-99.99,,2013-01-20 02:59:00,
2013-01-19 22:15:00,49.0,33.0,29.73,SW,228,3.0,-999.0,53,-99.99,,,-99.99,,2013-01-20 03:15:00,
2013-01-19 22:25:00,49.0,33.0,29.72,WSW,248,2.0,-999.0,54,-99.99,,,-99.99,,2013-01-20 03:25:00,
2013-01-19 22:38:00,48.0,32.0,29.72,SSW,209,3.0,-999.0,54,-99.99,,,-99.99,,2013-01-20 03:38:00,
2013-01-19 22:45:00,48.0,32.0,29.72,SSW,209,3.0,-999.0,54,-99.99,,,-99.99,,2013-01-20 03:45:00,
2013-01-19 23:05:00,49.0,34.0,29.71,SW,214,3.0,-999.0,55,-99.99,,,-99.99,,2013-01-20 04:05:00,
2013-01-19 23:15:00,49.0,34.0,29.71,SW,214,3.0,-999.0,55,-99.99,,,-99.99,,2013-01-20 04:15:00,
2013-01-19 23:44:00,49.0,34.0,29.69,WSW,256,5.0,-999.0,56,-99.99,,,-99.99,,2013-01-20 04:44:00,
2013-01-19 23:58:00,49.0,34.0,29.69,South,190,4.0,-999.0,57,-99.99,,,-99.99,,2013-01-20 04:58:00,